User: anonymous   Login
Location: Alpine Heights
(32.8181°N, 116.7809°W)
Time: 05:17:55
(UTC+00:00)
Language:

Meteor 1-21 - Orbit

View from above orbital plane
View from above orbital plane
View from above satellite
View from above satellite

Ground track
Ground track

The orbit data is extracted from the following two-line orbital elements,

1 07714U 75023A   21171.52933370 -.00000018  00000-0 -18251-4 0  9992
2 07714  81.2097 205.7856 0029589  94.3901 266.0650 14.08039936691004
Epoch (UTC): 20 June 2021 12:42:14
Eccentricity: 0.0029589
inclination: 81.2097°
perigee height: 844 km
apogee height: 887 km
right ascension of ascending node: 205.7856°
argument of perigee: 94.3901°
revolutions per day: 14.08039936
mean anomaly at epoch: 266.0650°
orbit number at epoch: 69100

The dashed part of the orbit path shows where the satellite is in the earth's shadow,  

DLR